| time (UTC) | temp F | wind direction | speed knots | gust knots | rain 1hr in | rain 24hr in | rain mn in | humidity % | barometer mb |
| 20260505140235 | 69 | 147 | 1.7 | 2.6 | 0.00 | 0.00 | 0.00 | 56 | 1015.9 |
| 20260505130158 | 62 | 200 | 1.7 | 1.7 | 0.00 | 0.00 | 0.00 | 64 | 1016.0 |
| 20260505124648 | 64 | 146 | 0.0 | 1.7 | 0.00 | 0.00 | 0.00 | 62 | 1016.0 |
| 20260505124145 | 63 | 162 | 0.0 | 0.9 | 0.00 | 0.00 | 0.00 | 66 | 1015.8 |
| 20260505123641 | 63 | 153 | 0.0 | 0.0 | 0.00 | 0.00 | 0.00 | 67 | 1015.9 |
| 20260505123138 | 62 | 129 | 0.0 | 0.9 | 0.00 | 0.00 | 0.00 | 69 | 1015.9 |
| 20260505122634 | 61 | 134 | 0.0 | 0.0 | 0.00 | 0.00 | 0.00 | 70 | 1015.7 |
| 20260505122132 | 60 | 146 | 0.0 | 0.0 | 0.00 | 0.00 | 0.00 | 72 | 1015.9 |
| 20260505121628 | 60 | 152 | 0.0 | 0.9 | 0.00 | 0.00 | 0.00 | 72 | 1015.7 |
| 20260505121125 | 61 | 110 | 0.9 | 0.9 | 0.00 | 0.00 | 0.00 | 71 | 1015.6 |
| 20260505120621 | 59 | 142 | 0.0 | 0.0 | 0.00 | 0.00 | 0.00 | 73 | 1015.6 |
| 20260505120117 | 58 | 135 | 0.0 | 0.0 | 0.00 | 0.00 | 0.00 | 76 | 1015.5 |
| 20260505115612 | 55 | 146 | 0.0 | 0.0 | 0.00 | 0.00 | 0.00 | 80 | 1015.4 |
| 20260505115109 | 53 | 131 | 0.0 | 0.9 | 0.00 | 0.00 | 0.00 | 82 | 1015.3 |
| 20260505114606 | 53 | 121 | 0.9 | 0.9 | 0.00 | 0.00 | 0.00 | 82 | 1015.2 |
| 20260505114103 | 53 | 132 | 0.9 | 0.9 | 0.00 | 0.00 | 0.00 | 82 | 1015.3 |
| 20260505113559 | 52 | 164 | 0.0 | 0.9 | 0.00 | 0.00 | 0.00 | 81 | 1015.5 |
| 20260505113056 | 52 | 164 | 0.0 | 0.0 | 0.00 | 0.00 | 0.00 | 82 | 1015.2 |
| 20260505112552 | 51 | 212 | 0.9 | 0.9 | 0.00 | 0.00 | 0.00 | 84 | 1015.0 |
| 20260505112051 | 50 | 124 | 0.0 | 0.0 | 0.00 | 0.00 | 0.00 | 85 | 1014.8 |
| 20260505111549 | 49 | 155 | 0.0 | 0.9 | 0.00 | 0.00 | 0.00 | 86 | 1014.7 |
| 20260505111046 | 50 | 148 | 0.0 | 0.0 | 0.00 | 0.00 | 0.00 | 85 | 1014.5 |
| 20260505110542 | 49 | 149 | 0.0 | 0.0 | 0.00 | 0.00 | 0.00 | 85 | 1014.3 |
| 20260505102015 | 52 | 123 | 0.0 | 0.9 | 0.00 | 0.00 | 0.00 | 77 | 1014.4 |
| 20260505101513 | 53 | 153 | 0.0 | 0.0 | 0.00 | 0.00 | 0.00 | 77 | 1014.4 |
| 20260505101010 | 53 | 148 | 0.0 | 0.9 | 0.00 | 0.00 | 0.00 | 75 | 1014.4 |
| 20260505100507 | 53 | 156 | 0.0 | 0.0 | 0.00 | 0.00 | 0.00 | 73 | 1014.4 |
| 20260505100003 | 53 | 153 | 0.0 | 0.0 | 0.00 | 0.00 | 0.00 | 73 | 1014.6 |
| 20260505095459 | 53 | 161 | 0.0 | 0.0 | 0.00 | 0.00 | 0.00 | 73 | 1014.6 |
| 20260505094955 | 54 | 159 | 0.0 | 0.0 | 0.00 | 0.00 | 0.00 | 72 | 1014.5 |
| 20260505094453 | 54 | 151 | 0.0 | 0.0 | 0.00 | 0.00 | 0.00 | 71 | 1014.4 |
| 20260505093949 | 55 | 150 | 0.0 | 0.0 | 0.00 | 0.00 | 0.00 | 69 | 1014.3 |
| 20260505093445 | 56 | 145 | 0.0 | 0.0 | 0.00 | 0.00 | 0.00 | 67 | 1014.3 |
| 20260505092943 | 56 | 156 | 0.0 | 0.0 | 0.00 | 0.00 | 0.00 | 66 | 1014.4 |
| 20260505092440 | 57 | 148 | 0.0 | 0.0 | 0.00 | 0.00 | 0.00 | 65 | 1014.5 |
| 20260505091938 | 57 | 237 | 0.9 | 1.7 | 0.00 | 0.00 | 0.00 | 65 | 1014.4 |
| 20260505091435 | 56 | 179 | 0.9 | 1.7 | 0.00 | 0.00 | 0.00 | 66 | 1014.3 |
| 20260505090933 | 56 | 141 | 0.0 | 0.0 | 0.00 | 0.00 | 0.00 | 66 | 1014.4 |
| 20260505090431 | 57 | 326 | 0.0 | 0.0 | 0.00 | 0.00 | 0.00 | 66 | 1014.3 |
| 20260505085928 | 57 | 162 | 0.0 | 0.9 | 0.00 | 0.00 | 0.00 | 65 | 1014.4 |
| 20260505085426 | 57 | 167 | 0.0 | 0.0 | 0.00 | 0.00 | 0.00 | 64 | 1014.5 |
| 20260505084924 | 58 | 138 | 0.0 | 1.7 | 0.00 | 0.00 | 0.00 | 64 | 1014.5 |
| 20260505084422 | 58 | 156 | 0.0 | 0.0 | 0.00 | 0.00 | 0.00 | 64 | 1014.5 |
| 20260505083920 | 58 | 176 | 0.9 | 1.7 | 0.00 | 0.00 | 0.00 | 62 | 1014.4 |
| 20260505083417 | 58 | 202 | 0.9 | 0.9 | 0.00 | 0.00 | 0.00 | 63 | 1014.5 |
| 20260505082913 | 59 | 177 | 0.9 | 0.9 | 0.00 | 0.00 | 0.00 | 62 | 1014.5 |
| 20260505082409 | 59 | 158 | 0.0 | 1.7 | 0.00 | 0.00 | 0.00 | 61 | 1014.2 |
| 20260505081906 | 59 | 164 | 0.0 | 3.5 | 0.00 | 0.00 | 0.00 | 61 | 1014.5 |
| 20260505081402 | 58 | 290 | 0.9 | 1.7 | 0.00 | 0.00 | 0.00 | 63 | 1014.5 |
| 20260505080859 | 58 | 205 | 0.9 | 0.9 | 0.00 | 0.00 | 0.00 | 64 | 1014.3 |
| 20260505080355 | 58 | 136 | 0.0 | 0.0 | 0.00 | 0.00 | 0.00 | 64 | 1014.4 |
| 20260505075851 | 59 | 157 | 0.0 | 0.9 | 0.00 | 0.00 | 0.00 | 63 | 1014.4 |
| 20260505075348 | 58 | 153 | 0.0 | 0.9 | 0.00 | 0.00 | 0.00 | 63 | 1014.4 |
| 20260505074845 | 59 | 194 | 0.9 | 1.7 | 0.00 | 0.00 | 0.00 | 62 | 1014.4 |
| 20260505074342 | 58 | 181 | 0.9 | 0.9 | 0.00 | 0.00 | 0.00 | 63 | 1014.3 |
| 20260505073839 | 57 | 152 | 0.0 | 1.7 | 0.00 | 0.00 | 0.00 | 64 | 1014.4 |
| 20260505073337 | 58 | 148 | 0.0 | 0.0 | 0.00 | 0.00 | 0.00 | 64 | 1014.4 |
| 20260505072834 | 58 | 145 | 0.0 | 0.0 | 0.00 | 0.00 | 0.00 | 64 | 1014.5 |
| 20260505072330 | 58 | 218 | 0.0 | 0.9 | 0.00 | 0.00 | 0.00 | 63 | 1014.4 |
| 20260505071826 | 59 | 183 | 0.0 | 0.0 | 0.00 | 0.00 | 0.00 | 63 | 1014.4 |
| 20260505071323 | 59 | 140 | 0.0 | 0.0 | 0.00 | 0.00 | 0.00 | 63 | 1014.5 |
| 20260505070821 | 59 | 153 | 0.0 | 0.9 | 0.00 | 0.00 | 0.00 | 61 | 1014.3 |
| 20260505070318 | 60 | 168 | 0.0 | 0.9 | 0.00 | 0.00 | 0.00 | 61 | 1014.4 |
| 20260505065812 | 60 | 157 | 0.0 | 1.7 | 0.00 | 0.00 | 0.00 | 60 | 1014.4 |
| 20260505065309 | 61 | 217 | 0.9 | 1.7 | 0.00 | 0.00 | 0.00 | 60 | 1014.5 |
| 20260505064807 | 61 | 161 | 1.7 | 3.5 | 0.00 | 0.00 | 0.00 | 59 | 1014.6 |
| 20260505064304 | 61 | 132 | 0.0 | 1.7 | 0.00 | 0.00 | 0.00 | 59 | 1014.6 |
| 20260505063802 | 61 | 154 | 0.0 | 0.9 | 0.00 | 0.00 | 0.00 | 60 | 1014.5 |
| 20260505063258 | 61 | 199 | 0.9 | 0.9 | 0.00 | 0.00 | 0.00 | 59 | 1014.7 |
| 20260505062754 | 61 | 157 | 0.0 | 1.7 | 0.00 | 0.00 | 0.00 | 59 | 1014.6 |
| 20260505062252 | 61 | 150 | 0.9 | 1.7 | 0.00 | 0.00 | 0.00 | 60 | 1014.5 |
| 20260505061748 | 61 | 149 | 0.0 | 0.0 | 0.00 | 0.00 | 0.00 | 59 | 1014.6 |
| 20260505061246 | 62 | 188 | 0.9 | 2.6 | 0.00 | 0.00 | 0.00 | 58 | 1014.7 |
| 20260505060743 | 62 | 194 | 1.7 | 2.6 | 0.00 | 0.00 | 0.00 | 58 | 1014.6 |
| 20260505060241 | 62 | 273 | 1.7 | 2.6 | 0.00 | 0.00 | 0.00 | 58 | 1014.6 |
| 20260505055735 | 62 | 276 | 1.7 | 2.6 | 0.00 | 0.00 | 0.00 | 58 | 1014.6 |
| 20260505055232 | 62 | 163 | 0.9 | 1.7 | 0.00 | 0.00 | 0.00 | 58 | 1014.5 |
| 20260505054730 | 62 | 163 | 1.7 | 3.5 | 0.00 | 0.00 | 0.00 | 58 | 1014.5 |
| 20260505054227 | 62 | 324 | 0.9 | 1.7 | 0.00 | 0.00 | 0.00 | 59 | 1014.4 |
| 20260505053726 | 62 | 183 | 0.0 | 1.7 | 0.00 | 0.00 | 0.00 | 59 | 1014.5 |
| 20260505053221 | 63 | 227 | 1.7 | 2.6 | 0.00 | 0.00 | 0.00 | 59 | 1014.5 |
| 20260505052719 | 63 | 228 | 0.9 | 3.5 | 0.00 | 0.00 | 0.00 | 58 | 1014.3 |
| 20260505052216 | 62 | 244 | 1.7 | 1.7 | 0.00 | 0.00 | 0.00 | 59 | 1014.4 |
| 20260505051713 | 63 | 164 | 0.9 | 1.7 | 0.00 | 0.00 | 0.00 | 59 | 1014.4 |
| 20260505051211 | 63 | 210 | 0.9 | 3.5 | 0.00 | 0.00 | 0.00 | 58 | 1014.4 |
| 20260505050709 | 63 | 240 | 2.6 | 2.6 | 0.00 | 0.00 | 0.00 | 59 | 1014.3 |
| 20260505050207 | 63 | 171 | 0.0 | 2.6 | 0.00 | 0.00 | 0.00 | 59 | 1014.2 |
| 20260505041636 | 62 | 151 | 0.0 | 1.7 | 0.00 | 0.00 | 0.00 | 61 | 1014.5 |
| 20260505041134 | 61 | 157 | 0.0 | 0.0 | 0.00 | 0.00 | 0.00 | 63 | 1014.3 |
| 20260505040630 | 62 | 149 | 0.0 | 0.0 | 0.00 | 0.00 | 0.00 | 63 | 1014.3 |
| 20260505040128 | 62 | 143 | 0.0 | 0.0 | 0.00 | 0.00 | 0.00 | 62 | 1014.4 |
| 20260505035624 | 62 | 179 | 0.0 | 0.9 | 0.00 | 0.00 | 0.00 | 61 | 1014.3 |
| 20260505035120 | 62 | 149 | 0.0 | 0.0 | 0.00 | 0.00 | 0.00 | 62 | 1014.3 |
| 20260505034617 | 62 | 166 | 0.0 | 0.9 | 0.00 | 0.00 | 0.00 | 61 | 1014.2 |
| 20260505034114 | 63 | 149 | 0.0 | 0.9 | 0.00 | 0.00 | 0.00 | 60 | 1014.4 |
| 20260505033611 | 63 | 170 | 0.0 | 0.9 | 0.00 | 0.00 | 0.00 | 59 | 1014.2 |
| 20260505033110 | 63 | 193 | 0.9 | 1.7 | 0.00 | 0.00 | 0.00 | 59 | 1014.3 |
| 20260505032607 | 62 | 159 | 0.0 | 0.0 | 0.00 | 0.00 | 0.00 | 60 | 1014.4 |
| 20260505032103 | 62 | 160 | 0.0 | 0.0 | 0.00 | 0.00 | 0.00 | 59 | 1014.3 |
| 20260505031601 | 62 | 150 | 0.0 | 0.0 | 0.00 | 0.00 | 0.00 | 59 | 1014.3 |
| 20260505031056 | 62 | 140 | 0.0 | 0.0 | 0.00 | 0.00 | 0.00 | 58 | 1014.2 |
| 20260505030554 | 63 | 156 | 0.0 | 0.9 | 0.00 | 0.00 | 0.00 | 58 | 1014.4 |
| 20260505030049 | 63 | 153 | 0.0 | 0.0 | 0.00 | 0.00 | 0.00 | 57 | 1014.4 |
| 20260505025545 | 63 | 145 | 0.0 | 0.0 | 0.00 | 0.00 | 0.00 | 56 | 1014.4 |
| 20260505025045 | 63 | 140 | 0.0 | 0.0 | 0.00 | 0.00 | 0.00 | 57 | 1014.5 |
| 20260505024541 | 63 | 153 | 0.0 | 0.0 | 0.00 | 0.00 | 0.00 | 57 | 1014.4 |
| 20260505024038 | 64 | 149 | 0.0 | 0.9 | 0.00 | 0.00 | 0.00 | 56 | 1014.4 |
| 20260505023535 | 63 | 230 | 0.9 | 1.7 | 0.00 | 0.00 | 0.00 | 56 | 1014.6 |
| 20260505023033 | 63 | 160 | 0.0 | 0.0 | 0.00 | 0.00 | 0.00 | 57 | 1014.5 |
| 20260505022530 | 64 | 142 | 0.0 | 0.9 | 0.00 | 0.00 | 0.00 | 57 | 1014.5 |
| 20260505022027 | 64 | 156 | 0.0 | 0.0 | 0.00 | 0.00 | 0.00 | 55 | 1014.4 |
| 20260505021524 | 64 | 167 | 0.0 | 0.0 | 0.00 | 0.00 | 0.00 | 55 | 1014.6 |
| 20260505021021 | 64 | 205 | 0.9 | 0.9 | 0.00 | 0.00 | 0.00 | 55 | 1014.5 |
| 20260505020520 | 64 | 157 | 0.0 | 0.0 | 0.00 | 0.00 | 0.00 | 56 | 1014.4 |
| 20260505020018 | 64 | 148 | 0.0 | 0.0 | 0.00 | 0.00 | 0.00 | 55 | 1014.4 |
| 20260505015515 | 65 | 152 | 0.0 | 0.0 | 0.00 | 0.00 | 0.00 | 54 | 1014.4 |
| 20260505015012 | 65 | 199 | 0.9 | 1.7 | 0.00 | 0.00 | 0.00 | 53 | 1014.3 |
| 20260505014509 | 66 | 158 | 0.0 | 1.7 | 0.00 | 0.00 | 0.00 | 54 | 1014.3 |
| 20260505014006 | 66 | 189 | 0.9 | 0.9 | 0.00 | 0.00 | 0.00 | 54 | 1014.5 |
| 20260505013503 | 66 | 200 | 0.9 | 1.7 | 0.00 | 0.00 | 0.00 | 54 | 1014.4 |
| 20260505013000 | 66 | 170 | 0.0 | 0.9 | 0.00 | 0.00 | 0.00 | 54 | 1014.3 |
| 20260505012458 | 66 | 165 | 0.0 | 0.0 | 0.00 | 0.00 | 0.00 | 54 | 1014.4 |
| 20260505011955 | 66 | 127 | 0.9 | 1.7 | 0.00 | 0.00 | 0.00 | 53 | 1014.2 |
| 20260505011450 | 66 | 163 | 0.0 | 0.9 | 0.00 | 0.00 | 0.00 | 54 | 1014.3 |
| 20260505010947 | 66 | 147 | 0.0 | 0.9 | 0.00 | 0.00 | 0.00 | 54 | 1014.2 |
| 20260505010443 | 67 | 153 | 0.0 | 0.9 | 0.00 | 0.00 | 0.00 | 54 | 1014.3 |
| 20260505005939 | 68 | 105 | 0.0 | 0.9 | 0.00 | 0.00 | 0.00 | 53 | 1014.1 |
| 20260505005436 | 68 | 165 | 0.9 | 1.7 | 0.00 | 0.00 | 0.00 | 53 | 1014.1 |
| 20260505004934 | 68 | 100 | 0.0 | 1.7 | 0.00 | 0.00 | 0.00 | 52 | 1014.1 |
| 20260505004430 | 69 | 177 | 0.9 | 0.9 | 0.00 | 0.00 | 0.00 | 53 | 1013.9 |
| 20260505003927 | 69 | 96 | 0.0 | 1.7 | 0.00 | 0.00 | 0.00 | 54 | 1014.0 |
| 20260505003425 | 69 | 155 | 0.0 | 1.7 | 0.00 | 0.00 | 0.00 | 54 | 1013.8 |
| 20260505002921 | 70 | 135 | 0.0 | 2.6 | 0.00 | 0.00 | 0.00 | 53 | 1013.8 |
| 20260505002417 | 70 | 152 | 0.0 | 1.7 | 0.00 | 0.00 | 0.00 | 53 | 1013.7 |
| 20260505001916 | 70 | 159 | 0.9 | 0.9 | 0.00 | 0.00 | 0.00 | 53 | 1013.9 |
| 20260505001413 | 71 | 158 | 0.9 | 1.7 | 0.00 | 0.00 | 0.00 | 53 | 1013.7 |
| 20260505000910 | 71 | 164 | 0.9 | 1.7 | 0.00 | 0.00 | 0.00 | 52 | 1013.8 |
| 20260505000408 | 71 | 161 | 0.9 | 2.6 | 0.00 | 0.00 | 0.00 | 53 | 1013.6 |
| 20260504235904 | 72 | 250 | 2.6 | 3.5 | 0.00 | 0.00 | 0.00 | 52 | 1013.6 |
| 20260504235401 | 72 | 173 | 1.7 | 3.5 | 0.00 | 0.00 | 0.00 | 51 | 1013.6 |
| 20260504234857 | 73 | 162 | 0.9 | 1.7 | 0.00 | 0.00 | 0.00 | 50 | 1013.7 |
| 20260504234355 | 73 | 228 | 2.6 | 3.5 | 0.00 | 0.00 | 0.00 | 50 | 1013.7 |
| 20260504233852 | 74 | 170 | 0.0 | 2.6 | 0.00 | 0.00 | 0.00 | 50 | 1013.6 |
| 20260504233347 | 74 | 148 | 1.7 | 2.6 | 0.00 | 0.00 | 0.00 | 50 | 1013.6 |
| 20260504232844 | 74 | 348 | 0.9 | 5.2 | 0.00 | 0.00 | 0.00 | 50 | 1013.7 |
| 20260504232341 | 74 | 171 | 0.9 | 6.1 | 0.00 | 0.00 | 0.00 | 49 | 1013.7 |
| 20260504231838 | 74 | 118 | 1.7 | 6.1 | 0.00 | 0.00 | 0.00 | 50 | 1013.7 |
| 20260504231334 | 75 | 207 | 0.9 | 2.6 | 0.00 | 0.00 | 0.00 | 49 | 1013.4 |
| 20260504230831 | 75 | 201 | 1.7 | 3.5 | 0.00 | 0.00 | 0.00 | 49 | 1013.7 |
| 20260504230329 | 75 | 162 | 0.9 | 1.7 | 0.00 | 0.00 | 0.00 | 48 | 1013.4 |
| 20260504225827 | 76 | 315 | 1.7 | 7.0 | 0.00 | 0.00 | 0.00 | 48 | 1013.6 |
| 20260504225323 | 77 | 202 | 2.6 | 3.5 | 0.00 | 0.00 | 0.00 | 47 | 1013.7 |
| 20260504224821 | 76 | 205 | 0.9 | 5.2 | 0.00 | 0.00 | 0.00 | 47 | 1013.6 |
| 20260504224318 | 76 | 210 | 4.3 | 7.0 | 0.00 | 0.00 | 0.00 | 47 | 1013.7 |
| 20260504223814 | 77 | 208 | 1.7 | 3.5 | 0.00 | 0.00 | 0.00 | 47 | 1013.6 |
| 20260504223310 | 78 | 235 | 0.9 | 3.5 | 0.00 | 0.00 | 0.00 | 48 | 1013.4 |
| 20260504222807 | 77 | 179 | 0.9 | 3.5 | 0.00 | 0.00 | 0.00 | 48 | 1013.7 |
| 20260504222305 | 76 | 169 | 0.9 | 1.7 | 0.00 | 0.00 | 0.00 | 48 | 1013.6 |
| 20260504221802 | 76 | 258 | 1.7 | 5.2 | 0.00 | 0.00 | 0.00 | 47 | 1013.7 |
| 20260504221258 | 76 | 212 | 1.7 | 3.5 | 0.00 | 0.00 | 0.00 | 47 | 1013.7 |
| 20260504220755 | 76 | 189 | 1.7 | 5.2 | 0.00 | 0.00 | 0.00 | 48 | 1013.8 |
| 20260504220252 | 77 | 210 | 0.9 | 1.7 | 0.00 | 0.00 | 0.00 | 47 | 1013.9 |
| 20260504215749 | 76 | 73 | 0.0 | 3.5 | 0.00 | 0.00 | 0.00 | 47 | 1013.8 |
| 20260504215246 | 75 | 143 | 1.7 | 5.2 | 0.00 | 0.00 | 0.00 | 46 | 1013.7 |
| 20260504214741 | 75 | 249 | 3.5 | 5.2 | 0.00 | 0.00 | 0.00 | 49 | 1013.6 |
| 20260504214238 | 76 | 159 | 0.9 | 5.2 | 0.00 | 0.00 | 0.00 | 47 | 1013.7 |
| 20260504213735 | 76 | 215 | 1.7 | 5.2 | 0.00 | 0.00 | 0.00 | 49 | 1013.8 |
| 20260504213231 | 77 | 177 | 3.5 | 6.1 | 0.00 | 0.00 | 0.00 | 47 | 1013.7 |
| 20260504212729 | 78 | 192 | 3.5 | 5.2 | 0.00 | 0.00 | 0.00 | 45 | 1013.9 |
| 20260504212225 | 78 | 204 | 0.9 | 3.5 | 0.00 | 0.00 | 0.00 | 50 | 1014.0 |
| 20260504211723 | 79 | 95 | 0.9 | 1.7 | 0.00 | 0.00 | 0.00 | 46 | 1013.7 |
| 20260504211219 | 79 | 187 | 4.3 | 5.2 | 0.00 | 0.00 | 0.00 | 43 | 1013.9 |
| 20260504210716 | 78 | 71 | 0.9 | 3.5 | 0.00 | 0.00 | 0.00 | 45 | 1013.9 |
| 20260504210213 | 78 | 178 | 2.6 | 5.2 | 0.00 | 0.00 | 0.00 | 46 | 1013.8 |
| 20260504205710 | 79 | 180 | 1.7 | 2.6 | 0.00 | 0.00 | 0.00 | 47 | 1014.0 |
| 20260504205208 | 78 | 132 | 1.7 | 5.2 | 0.00 | 0.00 | 0.00 | 49 | 1014.0 |
| 20260504204706 | 78 | 215 | 4.3 | 7.8 | 0.00 | 0.00 | 0.00 | 45 | 1014.0 |
| 20260504204204 | 77 | 172 | 0.9 | 1.7 | 0.00 | 0.00 | 0.00 | 46 | 1014.0 |
| 20260504203703 | 78 | 233 | 2.6 | 6.1 | 0.00 | 0.00 | 0.00 | 46 | 1014.1 |
| 20260504203200 | 79 | 179 | 0.9 | 2.6 | 0.00 | 0.00 | 0.00 | 44 | 1014.1 |
| 20260504202700 | 78 | 163 | 0.9 | 3.5 | 0.00 | 0.00 | 0.00 | 47 | 1014.2 |
| 20260504202158 | 78 | 205 | 1.7 | 2.6 | 0.00 | 0.00 | 0.00 | 45 | 1014.1 |
| 20260504201654 | 77 | 250 | 2.6 | 2.6 | 0.00 | 0.00 | 0.00 | 48 | 1014.4 |
| 20260504201152 | 77 | 220 | 1.7 | 5.2 | 0.00 | 0.00 | 0.00 | 48 | 1014.4 |
| 20260504200649 | 77 | 181 | 0.9 | 2.6 | 0.00 | 0.00 | 0.00 | 48 | 1014.2 |
| 20260504200145 | 77 | 167 | 2.6 | 6.1 | 0.00 | 0.00 | 0.00 | 46 | 1014.4 |
| 20260504195641 | 77 | 197 | 4.3 | 6.1 | 0.00 | 0.00 | 0.00 | 45 | 1014.6 |
| 20260504195138 | 77 | 244 | 2.6 | 3.5 | 0.00 | 0.00 | 0.00 | 51 | 1014.5 |
| 20260504194635 | 78 | 231 | 1.7 | 3.5 | 0.00 | 0.00 | 0.00 | 50 | 1014.7 |
| 20260504194131 | 77 | 235 | 1.7 | 5.2 | 0.00 | 0.00 | 0.00 | 46 | 1014.6 |
| 20260504193627 | 76 | 106 | 0.9 | 3.5 | 0.00 | 0.00 | 0.00 | 49 | 1014.9 |
| 20260504193126 | 77 | 242 | 2.6 | 3.5 | 0.00 | 0.00 | 0.00 | 47 | 1014.6 |
| 20260504192623 | 77 | 254 | 1.7 | 5.2 | 0.00 | 0.00 | 0.00 | 49 | 1014.8 |
| 20260504192121 | 78 | 162 | 2.6 | 3.5 | 0.00 | 0.00 | 0.00 | 46 | 1015.0 |
| 20260504191619 | 77 | 169 | 0.0 | 2.6 | 0.00 | 0.00 | 0.00 | 47 | 1015.1 |
| 20260504191115 | 77 | 137 | 1.7 | 5.2 | 0.00 | 0.00 | 0.00 | 48 | 1015.1 |
| 20260504190611 | 77 | 126 | 0.9 | 3.5 | 0.00 | 0.00 | 0.00 | 47 | 1015.3 |
| 20260504190108 | 76 | 153 | 0.0 | 2.6 | 0.00 | 0.00 | 0.00 | 48 | 1015.2 |
| 20260504185604 | 75 | 236 | 1.7 | 5.2 | 0.00 | 0.00 | 0.00 | 47 | 1015.4 |
| 20260504185101 | 75 | 252 | 3.5 | 5.2 | 0.00 | 0.00 | 0.00 | 48 | 1015.4 |
| 20260504184557 | 75 | 188 | 1.7 | 5.2 | 0.00 | 0.00 | 0.00 | 51 | 1015.7 |
| 20260504184052 | 77 | 176 | 1.7 | 1.7 | 0.00 | 0.00 | 0.00 | 49 | 1015.4 |
| 20260504183549 | 76 | 333 | 2.6 | 2.6 | 0.00 | 0.00 | 0.00 | 46 | 1015.4 |
| 20260504183047 | 75 | 233 | 2.6 | 7.8 | 0.00 | 0.00 | 0.00 | 48 | 1015.5 |
| 20260504182544 | 76 | 217 | 0.9 | 3.5 | 0.00 | 0.00 | 0.00 | 47 | 1015.7 |
| 20260504182042 | 75 | 261 | 4.3 | 7.0 | 0.00 | 0.00 | 0.00 | 48 | 1015.7 |
| 20260504181538 | 76 | 136 | 1.7 | 3.5 | 0.00 | 0.00 | 0.00 | 49 | 1015.8 |
| 20260504181037 | 75 | 212 | 1.7 | 3.5 | 0.00 | 0.00 | 0.00 | 49 | 1015.9 |
| 20260504180535 | 76 | 283 | 2.6 | 5.2 | 0.00 | 0.00 | 0.00 | 47 | 1015.7 |
| 20260504180034 | 75 | 174 | 3.5 | 3.5 | 0.00 | 0.00 | 0.00 | 46 | 1016.0 |
| 20260504175531 | 75 | 198 | 1.7 | 2.6 | 0.00 | 0.00 | 0.00 | 49 | 1016.0 |
| 20260504175028 | 74 | 144 | 1.7 | 3.5 | 0.00 | 0.00 | 0.00 | 51 | 1016.0 |
| 20260504174526 | 73 | 221 | 1.7 | 5.2 | 0.00 | 0.00 | 0.00 | 47 | 1016.3 |
| 20260504174022 | 74 | 254 | 3.5 | 5.2 | 0.00 | 0.00 | 0.00 | 50 | 1016.2 |
| 20260504173519 | 74 | 221 | 1.7 | 5.2 | 0.00 | 0.00 | 0.00 | 49 | 1016.2 |
| 20260504173016 | 75 | 193 | 0.9 | 1.7 | 0.00 | 0.00 | 0.00 | 49 | 1016.2 |
| 20260504172512 | 73 | 243 | 0.9 | 5.2 | 0.00 | 0.00 | 0.00 | 49 | 1016.3 |
| 20260504172009 | 74 | 137 | 2.6 | 2.6 | 0.00 | 0.00 | 0.00 | 49 | 1016.4 |
| 20260504171506 | 74 | 178 | 0.9 | 3.5 | 0.00 | 0.00 | 0.00 | 52 | 1016.3 |
| 20260504171002 | 73 | 196 | 2.6 | 5.2 | 0.00 | 0.00 | 0.00 | 49 | 1016.3 |
| 20260504170459 | 73 | 243 | 2.6 | 3.5 | 0.00 | 0.00 | 0.00 | 47 | 1016.7 |
| 20260504160419 | 69 | 260 | 2.6 | 2.6 | 0.00 | 0.00 | 0.00 | 53 | 1017.4 |
| 20260504150843 | 67 | 179 | 0.9 | 5.2 | 0.00 | 0.00 | 0.00 | 51 | 1017.9 |
| 20260504150339 | 67 | 162 | 3.5 | 5.2 | 0.00 | 0.00 | 0.00 | 51 | 1018.2 |